Location: Unspecified
(0.0000°N, 0.0000°E)
Time: 21:00:20
(UTC+00:00)

Vanguard 2 - Pass Details

Date: 12 December 2017
Orbit: 552 x 2940 km, 32.9° (Epoch: 16 January)

Event Time Altitude Azimuth Distance (km) Brightness Sun altitude
Rises 05:31:30 0° 231° (SW) 5,820 11.7 -5.1°
Reaches altitude 10° 05:38:02 10° 210° (SSW) 5,254 11.7 -3.6°
Maximum altitude 05:46:10 15° 179° (S) 5,169 12.1 -1.7°
Drops below altitude 10° 05:55:01 10° 148° (SSE) 5,773 13.0 0.3°
Sets 06:03:01 0° 128° (SE) 6,713 14.3 2.1°
